Location: Falniów
(50.3639°N, 19.9642°E)
Time: 19:58:48
(UTC+00:00)

SL-08 R/B - Pass Details

Date: 28 April 2026
Orbit: 667 x 728 km, 98.5° (Epoch: 13 May)

Event Time Altitude Azimuth Distance (km) Brightness Sun altitude
Rises 20:59:07 0° 3° (N) 3,164 7.7 -21.8°
Reaches altitude 10° 21:02:09 10° 343° (NNW) 2,237 7.0 -22.0°
Maximum altitude 21:05:10 17° 305° (NW) 1,818 6.2 -22.2°
Drops below altitude 10° 21:08:10 10° 267° (W) 2,219 6.1 -22.4°
Sets 21:11:10 0° 247° (WSW) 3,128 6.7 -22.5°
